Regional Weather Roundup
Issued by NWS Charleston, WV

Home | Current Version | Previous Version | Text Only | Print | Product List | Glossary Off
Versions: 1 2 3 4 5 6 7 8 9 10 11 12 13 14 15 16 17 18 19 20 21 22 23 24 25 26 27

000
ASUS41 KRLX 281610
RWRRLX
West Virginia Regional Weather Roundup
National Weather Service Charleston WV
1200 PM EDT TUE MAR 28 2017

Note: "fair" indicates few or no clouds below 12,000 feet with no
significant weather and/or obstructions to visibility.

WVZ003-281700-
Northern Panhandle of West Virginia

CITY           SKY/WX    TMP DP  RH WIND       PRES   REMARKS
WHEELING       LGT RAIN  56  55  97 W7        29.89S FOG
$$

WVZ009-281700-
Northwest West Virginia

CITY           SKY/WX    TMP DP  RH WIND       PRES   REMARKS
PARKERSBURG    CLOUDY    62  55  77 W8        29.94R
$$

WVZ006-281700-
Western West Virginia

CITY           SKY/WX    TMP DP  RH WIND       PRES   REMARKS
HUNTINGTON     CLOUDY    60  54  80 W6        29.95R
$$

WVZ015-281700-
West Central West Virginia

CITY           SKY/WX    TMP DP  RH WIND       PRES   REMARKS
CHARLESTON     CLOUDY    61  55  81 SW8       29.93S
$$

WVZ022-031-281700-
North Central West Virginia

CITY           SKY/WX    TMP DP  RH WIND       PRES   REMARKS
CLARKSBURG     CLOUDY    60  54  80 W7        29.91R
MORGANTOWN     CLOUDY    59  53  80 SW6       29.91R
$$

WVZ025-035-042-045-281700-
Southern West Virginia

CITY           SKY/WX    TMP DP  RH WIND       PRES   REMARKS
BECKLEY        CLOUDY    55  52  89 W10       29.96R
LOGAN          CLOUDY    57  55  94 W8        29.96S
BLUEFIELD      RAIN      53  50  89 NW7G17    29.98R FOG
LEWISBURG      PTSUNNY   56  53  88 CALM      29.94S
$$

WVZ047-281700-
Northern Mountains of West Virginia

CITY           SKY/WX    TMP DP  RH WIND       PRES   REMARKS
ELKINS         CLOUDY    59  52  77 W3        29.92S
$$

WVZ052-281700-
Eastern Panhandle of West Virginia

CITY           SKY/WX    TMP DP  RH WIND       PRES   REMARKS
MARTINSBURG    LGT RAIN  56  54  93 CALM      29.87S FOG
PETERSBURG     CLOUDY    61  57  87 CALM      29.89F
$$




USA.gov is the U.S. government's official web portal to all federal, state and local government web resources and services.